Weather History for KEVW - January, 2013

Change the Weather History Date:

Sunday, January 13, 2013

  Actual Average Record
Temperature  
Mean Temperature -2 °F 22 °F  
Max Temperature 5 °F 29 °F 39 °F (2003)
Min Temperature -10 °F 15 °F -11 °F (2007)
Degree Days  
Heating Degree Days 67 43  
Month to date heating degree days 613 569  
Since 1 July heating degree days 3587 4048  
Cooling Degree Days 0 0  
Month to date cooling degree days 0 0  
Year to date cooling degree days 0 0  
Moisture  
Dew Point -9 °F    
Average Humidity 76    
Maximum Humidity 87    
Minimum Humidity 65    
Precipitation  
Precipitation T in 0.01 in 0.15 in (2015)
Month to date precipitation 0.02 0.24  
Year to date precipitation 0.02 0.24  
Sea Level Pressure  
Sea Level Pressure 30.19 in    
Wind  
Wind Speed 3 mph (SW)    
Max Wind Speed 8 mph    
Max Gust Speed 10 mph    
Visibility 9 miles    
Events Snow    
T = Trace of Precipitation, MM = Missing Value Source: NWS Daily Summary

Daily Weather History Graph

Daily Weather History Graph

Search for Another Location

Airport or City:

Trip Planner

Search our weather history database for the weather conditions in past years. The results will help you decide how hot, cold, wet, or windy it might be!

Date:

Astronomy

Jan. 13, 2013 Rise Set
Actual Time 7:48 AM MST 5:18 PM MST
Civil Twilight 7:17 AM MST 5:48 PM MST
Nautical Twilight 6:43 AM MST 6:22 PM MST
Astronomical Twilight 6:10 AM MST 6:55 PM MST
Moon 8:47 AM MST (1/13) 8:02 PM MST (1/13)
Length of Visible Light 10h 30m
Length of Day
9h 29m
Waxing Crescent, 5% of the Moon is Illuminated
Jan 13
Waxing Crescent
Jan 18
First Quarter
Jan 26
Full
Feb 3
Last Quarter
Feb 10
New

Hourly Weather History & Observations

Time (MST) Temp. Windchill Dew Point Humidity Pressure Visibility Wind Dir Wind Speed Gust Speed Precip Events Conditions
12:03 AM -5.8 °F -14.5 °F -9.4 °F 84% 29.87 in 3.0 mi SW 3.5 mph - 0.00 in Snow Light Snow
12:40 AM -7.6 °F -22.1 °F -11.2 °F 84% 29.87 in 10.0 mi WSW 6.9 mph - 0.00 in   Mostly Cloudy
12:53 AM -5.1 °F -17.6 °F -9.9 °F 80% 30.19 in 10.0 mi SW 5.8 mph - 0.00 in   Scattered Clouds
1:53 AM -6.0 °F -20.1 °F -9.9 °F 83% 30.18 in 10.0 mi SSW 6.9 mph - N/A   Overcast
2:53 AM -5.1 °F -17.6 °F -9.0 °F 83% 30.19 in 8.0 mi SSW 5.8 mph - N/A   Overcast
3:53 AM -6.0 °F -18.6 °F -9.9 °F 83% 30.20 in 6.0 mi SSW 5.8 mph - N/A   Overcast
4:53 AM -6.0 °F -14.7 °F -11.0 °F 79% 30.20 in 10.0 mi South 3.5 mph - N/A   Overcast
5:53 AM -6.0 °F -18.6 °F -11.0 °F 79% 30.23 in 8.0 mi SW 5.8 mph - N/A   Overcast
6:18 AM -5.8 °F -18.4 °F -9.4 °F 84% 29.86 in 8.0 mi SW 5.8 mph - N/A   Overcast
6:53 AM -6.0 °F -16.9 °F -9.9 °F 83% 30.28 in 10.0 mi SSW 4.6 mph - N/A   Mostly Cloudy
7:53 AM -7.1 °F -15.9 °F -11.0 °F 83% 30.29 in 10.0 mi South 3.5 mph - 0.00 in   Partly Cloudy
8:53 AM -4.0 °F -14.6 °F -8.0 °F 83% 30.30 in 10.0 mi South 4.6 mph - N/A   Clear
9:53 AM -2.0 °F -10.1 °F -6.0 °F 83% 30.30 in 10.0 mi SSW 3.5 mph - N/A   Clear
10:53 AM -0.9 °F - -5.1 °F 83% 30.29 in 10.0 mi Calm Calm - N/A   Clear
11:41 AM -0.4 °F -10.4 °F -5.8 °F 78% 29.90 in 10.0 mi SW 4.6 mph - N/A   Overcast
11:48 AM -0.4 °F -8.3 °F -5.8 °F 78% 29.90 in 9.0 mi SW 3.5 mph - N/A   Overcast
11:53 AM -0.0 °F -7.9 °F -6.0 °F 76% 30.26 in 9.0 mi WSW 3.5 mph - N/A   Overcast
12:53 PM 1.9 °F - -5.1 °F 72% 30.23 in 8.0 mi Calm Calm - N/A   Overcast
1:26 PM 1.4 °F -6.2 °F -5.8 °F 72% 29.88 in 10.0 mi West 3.5 mph - N/A   Scattered Clouds
1:53 PM 3.0 °F - -5.1 °F 69% 30.23 in 10.0 mi Calm Calm - N/A   Clear
2:53 PM 5.0 °F - -6.0 °F 61% 30.23 in 10.0 mi Calm Calm - N/A   Clear
3:53 PM 3.0 °F - -6.0 °F 66% 30.27 in 10.0 mi Calm Calm - N/A   Clear
4:53 PM -0.0 °F -7.9 °F -9.9 °F 63% 30.29 in 10.0 mi NNE 3.5 mph - N/A   Clear
5:53 PM -0.9 °F - -9.9 °F 66% 30.31 in 10.0 mi Calm Calm - N/A   Clear
6:53 PM -2.0 °F - -9.9 °F 69% 30.32 in 10.0 mi Calm Calm - N/A   Clear
7:53 PM -2.0 °F - -9.0 °F 72% 30.33 in 10.0 mi Calm Calm - N/A   Clear
8:53 PM -7.1 °F -15.9 °F -11.9 °F 79% 30.35 in 10.0 mi NNE 3.5 mph - N/A   Clear
9:53 PM -9.9 °F - -14.1 °F 82% 30.36 in 10.0 mi Calm Calm - N/A   Clear
10:53 PM -6.0 °F - -11.9 °F 75% 30.34 in 10.0 mi Calm Calm - N/A   Clear
11:53 PM -7.1 °F -15.9 °F -13.0 °F 75% 30.35 in 10.0 mi SW 3.5 mph - N/A   Clear